World > North America > United States > Alabama
Hourly Weather in Fort Davis, AlabamaFort Davis, Alabama Hourly Weather

Fort Davis, AL Hourly Weather

Hourly Weather Fort Davis, AlabamaHourly Weather in Fort Davis, AL
Lat: 32.24N, Lon: 85.71W  ICAO: KAUO
Web Search

If you are on your PC, you can easily pass this page to your phone by scanning the QR Code near the bottom with your camera.

Feedback

Fort Davis Hourly Weather

36 Hour Weather Scroll   °F Click to change Fort Davis hourly weather to Imperial units.Click to change Fort Davis hourly weather to Metric units. °C
Currently, Rain, temperature is 60°F16°C, dew point 60°F16°C, humidity 100%. Wind direction is SW at 6 mph10 km/h with visibility of 10.00 mi16 km. Barometric pressure is 30.06 in1018 mb.

Dec 06
5:00 PM

Dec 06
6:00 PM

Dec 06
7:00 PM

Dec 06
8:00 PM

Dec 06
9:00 PM

Dec 06
10:00 PM

Dec 06
11:00 PM

Dec 07
MIDNIGHT

Dec 07
1:00 AM

Dec 07
2:00 AM

Dec 07
3:00 AM

Dec 07
4:00 AM

Dec 07
5:00 AM

Dec 07
6:00 AM

Dec 07
7:00 AM

Dec 07
8:00 AM

Dec 07
9:00 AM

Dec 07
10:00 AM

Dec 07
11:00 AM

Dec 07
NOON

Dec 07
1:00 PM

Dec 07
2:00 PM

Dec 07
3:00 PM

Dec 07
4:00 PM

Dec 07
5:00 PM

Dec 07
6:00 PM

Dec 07
7:00 PM

Dec 07
8:00 PM

Dec 07
9:00 PM

Dec 07
10:00 PM

Dec 07
11:00 PM

Dec 08
MIDNIGHT

Dec 08
1:00 AM

Dec 08
2:00 AM

Dec 08
3:00 AM

Dec 08
4:00 AM
Cloudy Cloudy Cloudy Cloudy Cloudy Cloudy Cloudy Cloudy Cloudy Cloudy Cloudy Cloudy Cloudy Cloudy Cloudy Cloudy Cloudy Cloudy Cloudy Cloudy Cloudy Cloudy Cloudy Cloudy Cloudy Cloudy Cloudy Cloudy Cloudy Cloudy Cloudy Cloudy Cloudy Cloudy Cloudy Cloudy
Cloudy Cloudy Cloudy Cloudy Cloudy Cloudy Cloudy Cloudy Cloudy Cloudy Cloudy Cloudy Cloudy Cloudy Cloudy Cloudy Cloudy Cloudy Cloudy Cloudy Cloudy Cloudy Cloudy Cloudy Cloudy Cloudy Cloudy Cloudy Cloudy Cloudy Cloudy Cloudy Cloudy Cloudy Cloudy Cloudy
60°F16°C 59°F15°C 57°F14°C 56°F13°C 54°F12°C 52°F11°C 51°F11°C 49°F9°C 48°F9°C 47°F8°C 46°F8°C 45°F7°C 45°F7°C 44°F7°C 45°F7°C 45°F7°C 46°F8°C 47°F8°C 48°F9°C 49°F9°C 49°F9°C 50°F10°C 50°F10°C 49°F9°C 49°F9°C 48°F9°C 48°F9°C 47°F8°C 47°F8°C 47°F8°C 48°F9°C 48°F9°C 49°F9°C 49°F9°C 50°F10°C 51°F11°C
Rain Rain Rain Rain Rain Rain Rain Rain - - - - - - Rain Rain Rain Rain Rain Rain Rain Rain Rain Rain Rain Rain Rain Rain Rain Rain Rain Rain Rain Rain Rain Rain
88% 88% 30% 30% 30% 30% 30% 30% 12% 12% 12% 12% 12% 12% 28% 28% 28% 28% 28% 28% 27% 27% 27% 27% 27% 27% 37% 37% 37% 37% 37% 37% 50% 50% 50% 50%
56°F13°C 55°F13°C 54°F12°C 52°F11°C 51°F11°C 49°F9°C 48°F9°C 46°F8°C 45°F7°C 45°F7°C 44°F7°C 43°F6°C 43°F6°C 42°F6°C 41°F5°C 41°F5°C 40°F4°C 40°F4°C 41°F5°C 41°F5°C 42°F6°C 43°F6°C 44°F7°C 45°F7°C 45°F7°C 46°F8°C 46°F8°C 46°F8°C 46°F8°C 46°F8°C 46°F8°C 46°F8°C 47°F8°C 48°F9°C 49°F9°C 49°F9°C
87% 87% 90% 86% 90% 89% 89% 89% 89% 93% 93% 93% 93% 93% 86% 86% 79% 76% 77% 74% 77% 77% 80% 86% 86% 93% 93% 96% 96% 96% 93% 93% 93% 96% 96% 93%
NW NNW NNW NNW N N N N N N N SSW SE N NNE NNE NE NE NE ENE ENE E E E ESE ESE SE SE SE SE SE SE SSE SSE S S
9 mph 9 mph 9 mph 10 mph 10 mph 10 mph 10 mph 10 mph 10 mph 9 mph 9 mph 9 mph 7 mph 7 mph 7 mph 6 mph 6 mph 6 mph 3 mph 3 mph 3 mph 3 mph 3 mph 3 mph 4 mph 4 mph 4 mph 4 mph 4 mph 4 mph 4 mph 4 mph 4 mph 4 mph 4 mph 4 mph
6 mi10 km 6 mi10 km 6 mi10 km 10 mi16 km 10 mi16 km 10 mi16 km 10 mi16 km 10 mi16 km 10 mi16 km 10 mi16 km 10 mi16 km 10 mi16 km 10 mi16 km 10 mi16 km 10 mi16 km 10 mi16 km 10 mi16 km 10 mi16 km 10 mi16 km 10 mi16 km 10 mi16 km 10 mi16 km 10 mi16 km 10 mi16 km 10 mi16 km 10 mi16 km 10 mi16 km 10 mi16 km 10 mi16 km 6 mi10 km 6 mi10 km 5 mi8 km 3 mi5 km 3 mi5 km .75 mi1 km .75 mi1 km
Hour (CST)
Weather
Clouds
Temperature
Precip. Type
POP
Dewpoint
Humidity
Wind Direction
Wind Speed
Visibility
POP = Probability of Precipitation. ** Indicates missing data/values from model statistics.

24 Hour Forecast

Tonight - Cloudy. Chance of rain showers early in the evening, then slight chance of rain showers late in the evening. Lows in the lower 40s. North winds 5 to 10 mph. Chance of rain 50%.
Tuesday - Cloudy. Chance of rain showers in the morning, then chance of rain showers and slight chance of thunderstorms in the afternoon. Highs in the mid 50s. Northeast winds 5 to 10 mph. Chance of rain 50%.

48 Hour Forecast API Feed


Mon, Dec 6
5:00 pm

Mon, Dec 6
6:00 pm

Mon, Dec 6
7:00 pm

Mon, Dec 6
8:00 pm

Mon, Dec 6
9:00 pm

Mon, Dec 6
10:00 pm

Mon, Dec 6
11:00 pm

Tue, Dec 7
Midnight

Tue, Dec 7
1:00 am

Tue, Dec 7
2:00 am

Tue, Dec 7
3:00 am

Tue, Dec 7
4:00 am

Tue, Dec 7
5:00 am

Tue, Dec 7
6:00 am

Tue, Dec 7
7:00 am

Tue, Dec 7
8:00 am

Tue, Dec 7
9:00 am

Tue, Dec 7
10:00 am

Tue, Dec 7
11:00 am

Tue, Dec 7
Noon

Tue, Dec 7
1:00 pm

Tue, Dec 7
2:00 pm

Tue, Dec 7
3:00 pm

Tue, Dec 7
4:00 pm

Tue, Dec 7
5:00 pm

Tue, Dec 7
6:00 pm

Tue, Dec 7
7:00 pm

Tue, Dec 7
8:00 pm

Tue, Dec 7
9:00 pm

Tue, Dec 7
10:00 pm

Tue, Dec 7
11:00 pm

Wed, Dec 8
Midnight

Wed, Dec 8
1:00 am

Wed, Dec 8
2:00 am

Wed, Dec 8
3:00 am

Wed, Dec 8
4:00 am

Wed, Dec 8
5:00 am

Wed, Dec 8
6:00 am

Wed, Dec 8
7:00 am

Wed, Dec 8
8:00 am

Wed, Dec 8
9:00 am

Wed, Dec 8
10:00 am

Wed, Dec 8
11:00 am

Wed, Dec 8
Noon

Wed, Dec 8
1:00 pm

Wed, Dec 8
2:00 pm

Wed, Dec 8
3:00 pm

Wed, Dec 8
4:00 pm
Moderate Rain At TimesModerate RainHeavy RainMistOvercastLight DrizzleOvercastCloudyCloudyOvercastOvercastOvercastOvercastOvercastPatchy Rain PossibleCloudyCloudyPatchy Rain PossiblePatchy Rain PossiblePatchy Rain PossibleLight Rain ShowerLight Rain ShowerLight Rain ShowerLight Rain ShowerPatchy Rain PossiblePatchy Rain PossibleLight Rain ShowerOvercastOvercastOvercastOvercastOvercastMistMistMistLight Rain ShowerLight Rain ShowerLight Rain ShowerLight Rain ShowerFogFogLight DrizzleMistMistLight Rain ShowerOvercastOvercastPatchy Rain Possible
Moderate rain at times Moderate rain Heavy rain Mist Overcast Light drizzle Overcast Cloudy Cloudy Overcast Overcast Overcast Overcast Overcast Patchy rain possible Cloudy Cloudy Patchy rain possible Patchy rain possible Patchy rain possible Light rain showers Light rain showers Light rain showers Light rain showers Patchy rain possible Patchy rain possible Light rain showers Overcast Overcast Overcast Overcast Overcast Mist Mist Mist Light rain showers Light rain showers Light rain showers Light rain showers Fog Fog Light drizzle Mist Mist Light rain showers Overcast Overcast Patchy rain possible
62°F
16°C
62°F
16°C
61°F
16°C
60°F
15°C
56°F
14°C
54°F
12°C
52°F
11°C
51°F
10°C
49°F
10°C
48°F
9°C
47°F
9°C
47°F
9°C
47°F
9°C
47°F
9°C
47°F
8°C
47°F
8°C
47°F
9°C
48°F
9°C
49°F
10°C
50°F
10°C
51°F
11°C
52°F
11°C
52°F
11°C
53°F
12°C
53°F
12°C
53°F
12°C
53°F
12°C
53°F
11°C
53°F
12°C
54°F
12°C
54°F
12°C
55°F
13°C
55°F
13°C
56°F
13°C
57°F
14°C
58°F
14°C
58°F
15°C
59°F
15°C
59°F
15°C
59°F
15°C
59°F
15°C
58°F
14°C
58°F
14°C
58°F
15°C
60°F
15°C
60°F
15°C
60°F
16°C
62°F
16°C
60°F
16°C
61°F
16°C
61°F
16°C
58°F
15°C
54°F
12°C
51°F
11°C
49°F
10°C
47°F
8°C
46°F
8°C
45°F
7°C
44°F
7°C
44°F
6°C
43°F
6°C
42°F
6°C
41°F
5°C
39°F
4°C
38°F
3°C
39°F
4°C
40°F
5°C
42°F
6°C
44°F
7°C
46°F
8°C
47°F
8°C
49°F
9°C
49°F
10°C
50°F
10°C
51°F
10°C
51°F
10°C
51°F
11°C
52°F
11°C
53°F
12°C
53°F
12°C
53°F
12°C
55°F
13°C
56°F
13°C
57°F
14°C
58°F
14°C
58°F
15°C
59°F
15°C
59°F
15°C
58°F
15°C
57°F
14°C
57°F
14°C
57°F
14°C
58°F
14°C
58°F
14°C
58°F
14°C
58°F
15°C
30 in
1016 mb
30.03 in
1017 mb
30.06 in
1018 mb
30.09 in
1019 mb
30.12 in
1020 mb
30.12 in
1020 mb
30.12 in
1020 mb
30.09 in
1019 mb
30.09 in
1019 mb
30.09 in
1019 mb
30.09 in
1019 mb
30.12 in
1020 mb
30.12 in
1020 mb
30.12 in
1020 mb
30.12 in
1020 mb
30.15 in
1021 mb
30.15 in
1021 mb
30.15 in
1021 mb
30.18 in
1022 mb
30.15 in
1021 mb
30.12 in
1020 mb
30.09 in
1019 mb
30.06 in
1018 mb
30.06 in
1018 mb
30.06 in
1018 mb
30.06 in
1018 mb
30.06 in
1018 mb
30.06 in
1018 mb
30.06 in
1018 mb
30.06 in
1018 mb
30.03 in
1017 mb
30.03 in
1017 mb
30.03 in
1017 mb
30 in
1016 mb
30 in
1016 mb
30 in
1016 mb
29.97 in
1015 mb
29.97 in
1015 mb
30 in
1016 mb
30 in
1016 mb
30.03 in
1017 mb
30.06 in
1018 mb
30.06 in
1018 mb
30.03 in
1017 mb
30.03 in
1017 mb
30 in
1016 mb
30 in
1016 mb
30.03 in
1017 mb
96%97%98%94%92%90%89%87%87%86%86%86%85%82%80%76%70%70%72%74%76%79%82%83%87%90%92%93%93%94%94%94%95%95%96%97%98%99%99%99%98%97%96%95%94%94%93%89%
NWWSWWNWNNWNNWNNNNWNNWNNNWNNNENNNENENNENNENENENEEEENEEENEENEENEESESESESSSSWSSWSWSWWSWWNWNWWNWWWWNWWNWNW
9 mph
14 km/h
4 mph
7 km/h
3 mph
4 km/h
6 mph
10 km/h
7 mph
12 km/h
8 mph
13 km/h
8 mph
13 km/h
6 mph
10 km/h
6 mph
9 km/h
6 mph
9 km/h
5 mph
8 km/h
5 mph
9 km/h
6 mph
10 km/h
5 mph
8 km/h
6 mph
9 km/h
5 mph
8 km/h
4 mph
7 km/h
4 mph
6 km/h
4 mph
6 km/h
3 mph
4 km/h
2 mph
4 km/h
2 mph
3 km/h
3 mph
4 km/h
3 mph
4 km/h
2 mph
3 km/h
4 mph
6 km/h
3 mph
5 km/h
3 mph
4 km/h
3 mph
4 km/h
3 mph
5 km/h
3 mph
5 km/h
1 mph
2 km/h
1 mph
2 km/h
3 mph
5 km/h
3 mph
5 km/h
2 mph
4 km/h
3 mph
5 km/h
3 mph
5 km/h
4 mph
6 km/h
5 mph
8 km/h
6 mph
9 km/h
5 mph
8 km/h
4 mph
6 km/h
3 mph
5 km/h
5 mph
8 km/h
5 mph
8 km/h
4 mph
7 km/h
6 mph
9 km/h
93%95%83%77%0%65%0%0%0%0%0%0%0%0%65%0%0%61%76%65%77%72%85%67%89%60%53%0%0%0%0%0%88%74%70%70%60%54%83%83%83%82%74%74%51%0%0%66%
5 mi
8 km
4 mi
7 km
3 mi
5 km
1 mi
2 km
6 mi
10 km
1 mi
2 km
6 mi
10 km
6 mi
10 km
6 mi
10 km
6 mi
10 km
6 mi
10 km
6 mi
10 km
6 mi
10 km
6 mi
10 km
6 mi
10 km
6 mi
10 km
6 mi
10 km
6 mi
10 km
6 mi
10 km
6 mi
10 km
6 mi
10 km
6 mi
10 km
6 mi
10 km
6 mi
10 km
6 mi
10 km
6 mi
10 km
6 mi
10 km
6 mi
10 km
6 mi
10 km
6 mi
10 km
6 mi
10 km
6 mi
10 km
1 mi
2 km
1 mi
2 km
1 mi
2 km
6 mi
10 km
6 mi
10 km
6 mi
10 km
6 mi
10 km
0 mi
0 km
0 mi
0 km
1 mi
2 km
1 mi
2 km
1 mi
2 km
6 mi
10 km
6 mi
10 km
6 mi
10 km
6 mi
10 km

Day/Time
Weather
Condition
Temperature
Dew Point
Pressure
Humidity
Wind Direction
Wind Speed
Prob Precip %
Visibility
Prob Precip % = Probability of Precipitation.